This is the latest recevied weather packets stored in our database for station/object N1ICS-1. If no packets are shown the sender has not sent any weather packets the latest 10 day(s).
| Time | Temp. | Humidity | Pressure | Rain* | Wind** | Luminosity | Snow |
|---|---|---|---|---|---|---|---|
| 1777991102 | 15.56° C | 89% | 1009.2 hPa | 0 mm | - | 95 W/m² | - |
| 1777990802 | 15.56° C | 88% | 1009.2 hPa | 0 mm | - | 94 W/m² | - |
| 1777990501 | 15.56° C | 87% | 1009 hPa | 0 mm | - | 155 W/m² | - |
| 1777989902 | 16.11° C | 87% | 1008.9 hPa | 0 mm | - | 399 W/m² | - |
| 1777989602 | 15.56° C | 87% | 1008.5 hPa | 0 mm | - | 322 W/m² | - |
| 1777989302 | 15.56° C | 88% | 1008.8 hPa | 0 mm | - | 200 W/m² | - |
| 1777989002 | 15.56° C | 88% | 1008.6 hPa | 0 mm | - | 111 W/m² | - |
| 1777988702 | 15.56° C | 87% | 1008.2 hPa | 0 mm | - | 134 W/m² | - |
| 1777988401 | 15.56° C | 87% | 1008.2 hPa | 0 mm | - | 110 W/m² | - |
| 1777988102 | 15.56° C | 87% | 1008.4 hPa | 0 mm | - | 110 W/m² | - |
| 1777987801 | 15.56° C | 87% | 1008.5 hPa | 0 mm | - | 135 W/m² | - |
| 1777987501 | 15.56° C | 86% | 1008.4 hPa | 0 mm | - | 188 W/m² | - |
| 1777987202 | 16.11° C | 86% | 1008.1 hPa | 0 mm | - | 282 W/m² | - |
| 1777986901 | 16.11° C | 86% | 1007.9 hPa | 0 mm | - | 385 W/m² | - |
| 1777986602 | 16.11° C | 86% | 1007.7 hPa | 0 mm | - | 353 W/m² | - |
| 1777986301 | 15.56° C | 87% | 1007.5 hPa | 0 mm | - | 352 W/m² | - |
| 1777986002 | 15.56° C | 86% | 1007.6 hPa | 0 mm | - | 360 W/m² | - |
| 1777985701 | 15.56° C | 89% | 1007.5 hPa | 0 mm | - | 331 W/m² | - |
| 1777985402 | 15.56° C | 88% | 1007.6 hPa | 0 mm | - | 274 W/m² | - |
| 1777985102 | 15° C | 88% | 1007.5 hPa | 0 mm | - | 272 W/m² | - |
| 1777984801 | 15° C | 87% | 1007.8 hPa | 0 mm | - | 266 W/m² | - |
| 1777984502 | 15° C | 89% | 1007.8 hPa | 0 mm | - | 259 W/m² | - |
| 1777984202 | 15° C | 89% | 1007.8 hPa | 0 mm | - | 231 W/m² | - |
| 1777983902 | 14.44° C | 89% | 1007.9 hPa | 0 mm | - | 226 W/m² | - |
| 1777983601 | 14.44° C | 90% | 1008.1 hPa | 0 mm | - | 215 W/m² | - |
* Rain latest hour (hover to see other rain measurements)
** Current wind speed in m/s (hover to see current wind gust speed)